Indianapolis Mount Comfort, IN

4:49 AM EST on December 14, 2019 (GMT -0500)
Mount Comfort

Weather History for KMQJ - June, 2019

Change the Weather History Date:

Wednesday, June 5, 2019

  Actual Average (KEYE) Record (KEYE)
Temperature  
Mean Temperature 71 °F -  
Max Temperature 80 °F 73 °F 88 °F (2005)
Min Temperature 62 °F 57 °F 48 °F (2003)
Cooling Degree Days 6    
Growing Degree Days 21 (Base 50)    
Moisture  
Dew Point 68 °F    
Average Humidity 92    
Maximum Humidity 100    
Minimum Humidity 73    
Precipitation  
Precipitation 0.00 in - - ()
Sea Level Pressure  
Sea Level Pressure 29.82 in    
Wind  
Wind Speed 8 mph (SSW)    
Max Wind Speed 20 mph    
Max Gust Speed 31 mph    
Visibility 10 miles    
Events      
Averages and records for this station are not official NWS values.
T = Trace of Precipitation, MM = Missing Value Source: NWS Daily Summary

Daily Weather History Graph

Daily Weather History Graph

Search for Another Location

Airport or City:

Astronomy

Jun. 05, 2019 Rise Set
Actual Time 6:16 AM EDT 9:08 PM EDT
Civil Twilight 5:43 AM EDT 9:40 PM EDT
Nautical Twilight 5:03 AM EDT 10:21 PM EDT
Astronomical Twilight 4:16 AM EDT 11:08 PM EDT
Moon 8:20 AM EDT (6/5) 11:34 PM EDT (6/5)
Length of Visible Light 15h 57m
Length of Day
14h 52m
Waxing Crescent, 6% of the Moon is Illuminated
Jun 5
Waxing Crescent
Jun 10
First Quarter
Jun 17
Full
Jun 25
Last Quarter
Jul 2
New

Hourly Weather History & Observations

Time (EDT) Temp. Heat Index Dew Point Humidity Pressure Visibility Wind Dir Wind Speed Gust Speed Precip Events Conditions
12:05 AM 69.8 °F - 60.8 °F 73% 29.89 in 10.0 mi South 8.1 mph - N/A   Scattered Clouds
12:27 AM 69.8 °F - 60.8 °F 73% 29.89 in 10.0 mi South 8.1 mph - N/A   Scattered Clouds
12:46 AM 69.8 °F - 60.8 °F 73% 29.89 in 10.0 mi South 8.1 mph - N/A   Mostly Cloudy
1:03 AM 69.8 °F - 62.6 °F 78% 29.88 in 10.0 mi South 8.1 mph - N/A   Scattered Clouds
1:25 AM 69.8 °F - 62.6 °F 78% 29.88 in 10.0 mi South 9.2 mph - N/A   Mostly Cloudy
1:49 AM 69.8 °F - 62.6 °F 78% 29.88 in 10.0 mi SSW 9.2 mph - N/A   Scattered Clouds
2:10 AM 69.8 °F - 64.4 °F 83% 29.88 in 10.0 mi SSW 6.9 mph - N/A   Mostly Cloudy
2:28 AM 69.8 °F - 64.4 °F 83% 29.87 in 10.0 mi SSW 6.9 mph - N/A   Mostly Cloudy
2:47 AM 68.0 °F - 66.2 °F 94% 29.87 in 10.0 mi South 6.9 mph - N/A   Mostly Cloudy
3:09 AM 66.2 °F - 66.2 °F 100% 29.86 in 10.0 mi South 6.9 mph - N/A   Scattered Clouds
3:30 AM 68.0 °F - 66.2 °F 94% 29.84 in 10.0 mi South 6.9 mph - N/A   Clear
3:44 AM 68.0 °F - 66.2 °F 94% 29.84 in 10.0 mi SSW 8.1 mph - N/A   Clear
4:04 AM 68.0 °F - 66.2 °F 94% 29.83 in 10.0 mi South 9.2 mph - N/A   Scattered Clouds
4:23 AM 68.0 °F - 66.2 °F 94% 29.83 in 10.0 mi South 6.9 mph - N/A   Scattered Clouds
4:48 AM 66.2 °F - 66.2 °F 100% 29.84 in 10.0 mi SSW 6.9 mph - N/A   Scattered Clouds
5:09 AM 66.2 °F - 66.2 °F 100% 29.83 in 10.0 mi South 3.5 mph - N/A   Scattered Clouds
5:41 AM 66.2 °F - 66.2 °F 100% 29.82 in 10.0 mi South 4.6 mph - N/A   Scattered Clouds
6:11 AM 66.2 °F - 66.2 °F 100% 29.82 in 10.0 mi SSE 5.8 mph - N/A   Clear
6:29 AM 66.2 °F - 66.2 °F 100% 29.84 in 10.0 mi South 8.1 mph - N/A   Clear
6:49 AM 68.0 °F - 68.0 °F 100% 29.83 in 10.0 mi SSW 9.2 mph - N/A   Scattered Clouds
7:09 AM 68.0 °F - 68.0 °F 100% 29.84 in 10.0 mi SSW 5.8 mph - N/A   Scattered Clouds
7:29 AM 68.0 °F - 68.0 °F 100% 29.84 in 10.0 mi SW 5.8 mph - N/A   Overcast
7:49 AM 68.0 °F - 68.0 °F 100% 29.84 in 10.0 mi SW 4.6 mph - N/A   Mostly Cloudy
8:09 AM 69.8 °F - 69.8 °F 100% 29.84 in 10.0 mi SSW 6.9 mph - N/A   Scattered Clouds
8:31 AM 71.6 °F - 69.8 °F 94% 29.82 in 10.0 mi SW 10.4 mph 17.3 mph N/A   Mostly Cloudy
8:50 AM 71.6 °F - 68.0 °F 88% 29.82 in 10.0 mi SW 13.8 mph 18.4 mph N/A   Mostly Cloudy
9:08 AM 73.4 °F - 69.8 °F 88% 29.82 in 10.0 mi WSW 15.0 mph 19.6 mph N/A   Mostly Cloudy
9:25 AM 71.6 °F - 68.0 °F 88% 29.82 in 10.0 mi SW 13.8 mph 17.3 mph N/A   Mostly Cloudy
9:45 AM 75.2 °F - 69.8 °F 83% 29.82 in 10.0 mi SW 13.8 mph 18.4 mph N/A   Scattered Clouds
10:09 AM 75.2 °F - 69.8 °F 83% 29.81 in 10.0 mi WSW 13.8 mph - N/A   Scattered Clouds
10:28 AM 75.2 °F - 69.8 °F 83% 29.81 in 10.0 mi WSW 13.8 mph - N/A   Scattered Clouds
10:47 AM 77.0 °F - 69.8 °F 78% 29.80 in 10.0 mi WSW 16.1 mph - N/A   Scattered Clouds
11:08 AM 75.2 °F - 69.8 °F 83% 29.79 in 10.0 mi SW 13.8 mph - N/A   Mostly Cloudy
11:28 AM 75.2 °F - 69.8 °F 83% 29.79 in 10.0 mi SW 13.8 mph - N/A   Mostly Cloudy
11:49 AM 75.2 °F - 69.8 °F 83% 29.80 in 10.0 mi WSW 12.7 mph - N/A   Overcast
12:08 PM 75.2 °F - 71.6 °F 89% 29.80 in 10.0 mi SW 12.7 mph - N/A   Overcast
12:26 PM 75.2 °F - 71.6 °F 89% 29.81 in 10.0 mi SW 12.7 mph 18.4 mph N/A   Overcast
12:46 PM 77.0 °F - 71.6 °F 83% 29.81 in 10.0 mi WSW 12.7 mph 18.4 mph N/A   Mostly Cloudy
1:09 PM 77.0 °F - 71.6 °F 83% 29.80 in 10.0 mi SW 11.5 mph 17.3 mph N/A   Mostly Cloudy
1:26 PM 78.8 °F - 73.4 °F 83% 29.80 in 10.0 mi SW 11.5 mph 16.1 mph N/A   Mostly Cloudy
1:44 PM 78.8 °F - 73.4 °F 83% 29.80 in 10.0 mi WSW 12.7 mph 19.6 mph N/A   Overcast
2:05 PM 78.8 °F - 73.4 °F 83% 29.80 in 10.0 mi SW 12.7 mph - N/A   Overcast
2:28 PM 80.6 °F 85.4 °F 73.4 °F 79% 29.80 in 10.0 mi WSW 12.7 mph 19.6 mph N/A   Mostly Cloudy
2:49 PM 80.6 °F 86.2 °F 75.2 °F 84% 29.79 in 10.0 mi SW 11.5 mph - N/A   Overcast
3:09 PM 80.6 °F 85.4 °F 73.4 °F 79% 29.79 in 10.0 mi WSW 13.8 mph - N/A   Mostly Cloudy
3:29 PM 80.6 °F 85.4 °F 73.4 °F 79% 29.78 in 10.0 mi SW 8.1 mph 17.3 mph N/A   Mostly Cloudy
3:47 PM 80.6 °F 85.4 °F 73.4 °F 79% 29.77 in 10.0 mi WSW 9.2 mph - N/A   Scattered Clouds
4:06 PM 78.8 °F - 75.2 °F 89% 29.76 in 10.0 mi SW 8.1 mph - N/A   Scattered Clouds
4:28 PM 62.6 °F - 62.6 °F 100% 29.82 in - NNE 19.6 mph 31.1 mph N/A   Overcast
4:46 PM 62.6 °F - 62.6 °F 100% 29.85 in 2.0 mi West 4.6 mph - N/A   Overcast
5:05 PM 62.6 °F - 62.6 °F 100% 29.81 in 2.5 mi East 5.8 mph - N/A   Overcast
5:25 PM 64.4 °F - 64.4 °F 100% 29.80 in 10.0 mi Calm Calm - N/A   Overcast
5:44 PM 64.4 °F - 64.4 °F 100% 29.79 in 10.0 mi Calm Calm - N/A   Overcast
6:02 PM 64.4 °F - 64.4 °F 100% 29.80 in 10.0 mi SW 6.9 mph - N/A   Overcast
6:26 PM 66.2 °F - 66.2 °F 100% 29.76 in 7.0 mi WSW 4.6 mph - N/A   Overcast
6:50 PM 66.2 °F - 66.2 °F 100% 29.78 in 10.0 mi SW 3.5 mph - N/A   Mostly Cloudy
7:08 PM 66.2 °F - 66.2 °F 100% 29.75 in 10.0 mi South 6.9 mph - N/A   Mostly Cloudy
7:25 PM 66.2 °F - 66.2 °F 100% 29.75 in 10.0 mi Calm Calm - N/A   Mostly Cloudy
7:48 PM 68.0 °F - 68.0 °F 100% 29.73 in 10.0 mi Calm Calm - N/A   Scattered Clouds
8:07 PM 68.0 °F - 68.0 °F 100% 29.73 in 10.0 mi SSW 4.6 mph - N/A   Scattered Clouds
8:27 PM 68.0 °F - 68.0 °F 100% 29.75 in 10.0 mi South 4.6 mph - N/A   Scattered Clouds
8:47 PM 68.0 °F - 68.0 °F 100% 29.76 in 10.0 mi South 4.6 mph - N/A   Clear
9:07 PM 68.0 °F - 68.0 °F 100% 29.77 in 10.0 mi South 8.1 mph - N/A   Clear
9:22 PM 66.2 °F - 66.2 °F 100% 29.79 in 10.0 mi SSW 8.1 mph - N/A   Clear
9:44 PM 66.2 °F - 66.2 °F 100% 29.80 in 10.0 mi SSW 5.8 mph - N/A   Clear
10:07 PM 68.0 °F - 68.0 °F 100% 29.82 in 10.0 mi SW 8.1 mph - N/A   Mostly Cloudy
10:25 PM 68.0 °F - 68.0 °F 100% 29.82 in 10.0 mi SSW 4.6 mph - N/A   Overcast
10:44 PM 68.0 °F - 68.0 °F 100% 29.83 in 10.0 mi SW 8.1 mph - N/A   Mostly Cloudy
11:04 PM 68.0 °F - 68.0 °F 100% 29.82 in 10.0 mi WSW 4.6 mph - N/A   Overcast
11:26 PM 68.0 °F - 68.0 °F 100% 29.84 in 10.0 mi Calm Calm - N/A   Overcast
11:46 PM 66.2 °F - 66.2 °F 100% 29.83 in 10.0 mi Calm Calm - N/A   Scattered Clouds